This demonstration page uses our WeatherBlox Daily Observations layout. Learn more.

Left ArrowRight Arrow

Hourly Observations for December 29, 2017

Temp ( °F °C ) Dew Point ( °F °C ) Humidity (%) Winds ( mph kmh ) Pressure ( in mb ) Visibility ( mi km ) Precip ( " mm )
12:53 am 00:53 Cloudy 40 4.4 22 -5.6 49 49 E 3 6 30.37 1028 10 16 0.00 0.00
1:53 am 01:53 Cloudy 40 4.4 22 -5.6 49 49 E 5 7 30.35 1028 10 16 0.00 0.00
2:53 am 02:53 Cloudy 39 3.9 22 -5.6 50 50 Calm 30.34 1028 10 16 0.00 0.00
3:53 am 03:53 Cloudy 39 3.9 23 -5 53 53 ENE 5 7 30.33 1027 10 16 0.00 0.00
4:53 am 04:53 Cloudy 38 3.3 23 -5 55 55 NE 3 6 30.35 1028 10 16 0.00 0.00
5:53 am 05:53 Cloudy 38 3.3 24 -4.4 57 57 NNE 5 7 30.34 1028 10 16 0.00 0.00
6:53 am 06:53 Cloudy 37 2.8 24 -4.4 59 59 NNE 3 6 30.35 1028 10 16 0.00 0.00
7:53 am 07:53 Sunny 34 1.1 24 -4.4 67 67 Calm 30.36 1028 10 16 0.00 0.00
8:53 am 08:53 Sunny 37 2.8 25 -3.9 62 62 Calm 30.36 1028 10 16 0.00 0.00
9:53 am 09:53 Sunny 40 4.4 23 -5 51 51 E 3 6 30.37 1028 10 16 0.00 0.00
10:53 am 10:53 Sunny 44 6.7 25 -3.9 47 47 undefined N/A 30.36 1028 10 16 0.00 0.00
11:53 am 11:53 Sunny 46 7.8 26 -3.3 46 46 VRB 6 9 30.34 1027 10 16 0.00 0.00
12:53 pm 12:53 Sunny 48 8.9 27 -2.8 44 44 VRB 5 7 30.30 1026 10 16 0.00 0.00
1:53 pm 13:53 Sunny 50 10 27 -2.8 41 41 WNW 7 11 30.26 1025 10 16 0.00 0.00
2:53 pm 14:53 Sunny 51 10.6 26 -3.3 38 38 Calm 30.24 1024 10 16 0.00 0.00
3:53 pm 15:53 Sunny 51 10.6 26 -3.3 38 38 W 5 7 30.22 1023 10 16 0.00 0.00
4:53 pm 16:53 Sunny 51 10.6 26 -3.3 38 38 Calm 30.22 1023 10 16 0.00 0.00
5:53 pm 17:53 Clear 47 8.3 29 -1.7 50 50 Calm 30.22 1024 10 16 0.00 0.00
6:53 pm 18:53 Clear 40 4.4 33 0.6 77 77 Calm 30.24 1024 10 16 0.00 0.00
7:53 pm 19:53 Clear 37 2.8 32 0 82 82 Calm 30.23 1024 10 16 0.00 0.00
8:53 pm 20:53 Clear 37 2.8 31 -0.6 79 79 Calm 30.23 1024 10 16 0.00 0.00
9:53 pm 21:53 Clear 33 0.6 31 -0.6 92 92 Calm 30.22 1023 10 16 0.00 0.00
10:53 pm 22:53 Clear 33 0.6 30 -1.1 89 89 Calm 30.22 1023 10 16 0.00 0.00
11:53 pm 23:53 Clear 32 0 30 -1.1 92 92 Calm 30.21 1023 10 16 0.00 0.00

Powered by AerisWeather